Regional Weather Roundup
Issued by NWS Wakefield, VA

Home | Current Version | Previous Version | Text Only | Print | Product List | Glossary Off
Versions: 1 2 3 4 5 6 7 8 9 10 11 12 13 14 15 16 17 18 19 20 21 22 23 24 25 26 27 28 29 30 31 32 33 34 35 36 37 38 39 40 41 42 43 44 45 46 47 48 49 50

000
ASUS41 KAKQ 212110
RWRAKQ

REGIONAL WEATHER ROUNDUP
NATIONAL WEATHER SERVICE WAKEFIELD VA
500 PM EDT MON JUL 21 2014

Note: "fair" indicates few or no clouds below 12,000 feet with no
significant weather and/or obstructions to visibility. * = Denotes
station may not report precipitation (e.g., rain,snow,etc.),
thunder or fog.

VAZ042-051-052>054-056-212200-
NORTHERN VIRGINIA

CITY           SKY/WX    TMP DP  RH WIND       PRES   REMARKS
WASH NATIONAL  PTSUNNY   84  65  52 SE7       30.16R
DULLES         PTSUNNY   81  67  62 SE8       30.15S
FORT BELVOIR   PTSUNNY   82  69  63 SE8       30.16S
QUANTICO       PTSUNNY   82  68  62 S12       30.16R
FREDERICKSBRG* PTSUNNY   82  71  67 SE6       30.14S
STAFFORD*      CLOUDY    80  70  70 SE7       30.19S
WARRENTON      CLOUDY    81  76  85 SE7       30.15S
CULPEPER*      PTSUNNY  N/A N/A N/A SE3       30.15S
MANASSAS*      MOSUNNY   82  70  65 SE7       30.15S
LEESBURG*      CLOUDY    82  70  65 SE6       30.16S
WINCHESTER     SUNNY     82  68  61 SE10      30.15S
$$

VAZ048-049-060>072-079>083-212200-
CENTRAL AND SOUTH CENTRAL VIRGINIA...AND NORTH CENTRAL NORTH CAROLINA

CITY           SKY/WX    TMP DP  RH WIND       PRES   REMARKS
RICHMOND       CLOUDY    82  69  64 SE9       30.16S
CHESTERFIELD*  CLOUDY    81  64  57 SE9       30.17F
HANOVER        CLOUDY    79  70  74 SE5       30.17S
TAPPAHANNOCK*  CLOUDY    81  67  61 E6        30.17S
CHARLOTTSVILLE CLOUDY    80  70  71 SE6       30.15S
ORANGE*        CLOUDY    79  70  73 E7        30.16S
LOUISA*        PTSUNNY   81  72  74 E6        30.15R
FARMVILLE*     CLOUDY    81  70  69 E7        30.13R
SOUTH HILL*    LGT RAIN  75  75 100 CALM      30.22R
ROANOKE RAPIDS LGT RAIN  68  64  88 CALM      30.16R
RALEIGH        CLOUDY    77  73  88 E6        30.14R FOG
$$

VAZ088>098-212200-
SOUTHEAST VIRGINIA

CITY           SKY/WX    TMP DP  RH WIND       PRES   REMARKS
NORFOLK        CLOUDY    77  69  76 E7        30.17R
VIRGINIA BEACH CLOUDY    76  70  82 E8        30.16S
NORFOLK NAVAL  CLOUDY    77  71  82 E12       30.18S
WEST POINT*    CLOUDY    81  69  67 E5        30.18S
NEWPORT NEWS   CLOUDY    81  71  71 SE8       30.17S
LANGLEY AFB    CLOUDY    76  73  89 E10       30.16S
FORT EUSTIS    CLOUDY    79  71  74 E9        30.15S
WILLIAMSBURG*  CLOUDY    82  73  74 SE7       30.17S
FRANKLIN*      CLOUDY    77  73  88 E3        30.16R
WAKEFIELD      CLOUDY    79  71  76 CALM      30.16S
$$

VAZ020-022-025-037-045-212200-
WESTERN AND SOUTHWEST VIRGINIA

CITY           SKY/WX    TMP DP  RH WIND       PRES   REMARKS
STAUNTON*      CLOUDY    82  66  60 S7        30.18S
HOT SPRINGS VA PTSUNNY   69  61  75 SE7       30.29F
LYNCHBURG      CLOUDY    79  70  73 E5        30.17S
DANVILLE       CLOUDY    78  70  76 E8        30.14S
MARTINSVILLE   CLOUDY    79  71  75 NE3       30.17S
ROANOKE        CLOUDY    79  68  69 E9        30.17S
BLACKSBURG     CLOUDY    77  70  78 SE9       30.22R
DUBLIN*        CLOUDY    78  68  70 SE6       30.19S
MARION*        CLOUDY    76  70  83 SE5       30.22R
HILLSVILLE*    CLOUDY    72  66  80 SE5       30.21F
RICHLANDS*     MOCLDY    82  66  58 SE3       30.18S
WISE*          MOSUNNY   82  61  47 NE6       30.18F
ABINGDON*      CLOUDY    79  66  64 S3        30.16R
$$

MDZ021>025-VAZ099-100-212200-
SOUTHERN MARYLAND AND THE DELMARVA PENINSULA

CITY           SKY/WX    TMP DP  RH WIND       PRES   REMARKS
PATUXENT RIVER PTSUNNY   78  68  71 S8        30.16F
BAY BRIDGE APT   N/A     82  63  51 S5        30.16S
LEONARDTOWN    CLOUDY    79  63  57 SE5       30.18S
DOVER          SUNNY     78  66  66 SE10      30.16S
GEORGETOWN     SUNNY     79  65  62 SE7       30.18F
EASTON         MOSUNNY   82  68  61 CALM      30.20S
CAMBRIDGE      MOSUNNY   82  63  51 SE6       30.16S
SALISBURY      NOT AVBL
OCEAN CITY     MOSUNNY   76  67  73 E7        30.18F
WALLOPS ISLAND PTSUNNY   78  68  71 E9        30.19R
ACCOMACK*        N/A     77  64  65 E7        30.17S
$$

NCZ012>017-030>032-212200-
EASTERN NORTH CAROLINA

CITY           SKY/WX    TMP DP  RH WIND       PRES   REMARKS
ELIZABETH CITY LGT RAIN  77  70  79 E8        30.16S
AHOSKIE*       CLOUDY    76  71  84 S3        30.16S
EDENTON*       DRIZZLE   76  74  92 CALM      30.15S
CURRITUCK*     CLOUDY    79  69  72 E3        30.16F
KILL DEVIL HLS RAIN      75  72  90 CALM      30.14S
MANTEO         NOT AVBL
CAPE HATTERAS  CLOUDY    80  73  79 VRB7      30.13F
GOLDSBORO      CLOUDY    76  75  98 SE3       30.11R
WASHINGTON     CLOUDY    75  71  87 SE3       30.14R
GREENVILLE     LGT RAIN  73  72  94 CALM      30.15R
NEW BERN       CLOUDY    78  73  84 SE3       30.14S
WILMINGTON     RAIN      74  72  93 CALM      30.11S FOG
$$

VAZ048-212200-
ELSEWHERE

CITY           SKY/WX    TMP DP  RH WIND       PRES   REMARKS
HARRISBURG PA  CLOUDY    79  67  66 SE3       30.16S
BALTIMORE      PTSUNNY   82  65  56 E5        30.15F
ANNAPOLIS      SUNNY     80  66  62 E7        30.16F
ANDREWS AFB    PTSUNNY   80  67  64 E8        30.17R
WILMINGTON DE  CLOUDY    82  68  62 S15       30.16F
PHILADELPHIA   CLOUDY    84  58  40 SW5       30.15S
WILDWOOD NJ*   SUNNY     77  61  57 S8        30.20S
ATLANTIC CITY  MOSUNNY   76  61  59 E10       30.18R
HENDERSON NC   CLOUDY    75  71  86 E3        30.16R
GREENSBORO     CLOUDY    77  71  82 NE8       30.13R
ROCKY MOUNT    CLOUDY    78  72  81 VRB3      30.13S
FAYETTEVILLE   LGT RAIN  74  72  93 S8        30.10F
CHARLOTTE      CLOUDY    76  70  82 NE9       30.12R
$$

VAZ100-212200-
MARINE

STATION/POSITION TIME  TEMP    WIND        PRES    WAVE   SWELL
                       AIR SEA DIR/SP/G            HT/PER HT/PER
                 (UTC) (F)     (DEG/KT/KT) (MB)    (FT/S) (FT/S)
44066 TX TWR #4  2100   70 73   50/  6/  8 1021.2F   3/ 8   3/ 8
CAPE MAY NJ      2100   74 76  130/  5/  7 1022.0S
LEWES DE         2100   74 74  120/  6/  8 1022.0R
15NM E FENWICK I 2100   73 75              1022.1F   4/ 7
OCEAN-CITY-INLET 2100   74 70   90/  6/  9 1021.9F
WACHAPREAGUE VA  2100   74 79   70/ 10/ 11 1021.7S
THOMAS POINT MD  2100   78 81  200/  5/  6 1021.9F
GOOSES REEF MD   2100   78     200/  4/  6 1022.0S
COVE POINT MD    2100   77     190/  8/ 10 1021.4R
SOLOMONS ISLAND  2100      82                N/A
BISHOPS HEAD MD  2100   79 80  160/  2/  3 1021.2S
PINEY POINT MD   2100          160/  9/ 10   N/A
POTOMAC MD       2100   78     150/  6/ 10 1020.9S
CAMBRIDGE MD     2100   81 80  100/  6/  8 1021.2S
LEWISETTA VA     2100   78 80  120/  8/  9 1021.4R
RAPPAHANNOCK LGT 2100          100/  9/ 10 1022.0F
STINGRAY PT      2100   77     120/  4/  6 1020.8S
YORK RVR RNG VA  2100   76     120/  8/ 10 1021.0S
YORKTOWN VA      2100   77 80  110/  8/  9 1021.2S
JAMESTOWN VA     2100   77     130/  6/ 10   N/A
DOMINION TERM VA 2100   76      70/ 10/ 14 1021.5R
KIPTOPEKE VA     2100      80   80/  6/ 10   N/A
CHES BAY BRIDGE  2100   74 74   60/ 11/ 12 1021.1R
CAPE HENRY VA    2100   75      70/  9/  9 1020.5R
WILLOUBY STN VA  2100           90/ 11/ 12 1020.8S
S CRANEY ISL VA  2100           40/  8/  9 1021.4R
CAPE HENRY BUOY  2100      76                N/A     3/ 7
1ST LANDING BUOY 2100   74      80/  8/ 10 1021.1S
CAPE CHARLES BUO 2100      75                N/A     3/ 7
OFFSHORE WE BUOY 2100      77                N/A     4/ 8
64NM E OF VA BCH 2100   76 78   50/  6/  6 1021.0S   3/ 7   3/ 7
DUCK PIER NC     2100   76 76  110/  6/  7 1020.5S
44056 DUCK FRF   2100                        N/A     2/ 8
OREGON INLET NC  2100   76 77   50/  5/  7 1020.7R
HATTERAS NC      2100   79 81   60/  6/  9 1020.5F
DIAMOND SHLS NC  2100          VRB 10/ 12  1019.6F   3/ 8   3/ 8
CAPE LOOKOUT NC  2000   76     130/ 18/ 20 1019.8S
$$


USA.gov is the U.S. government's official web portal to all federal, state and local government web resources and services.